Flag for Colombia Weather past 2 weeks in Barranquilla, Colombia

Now
81 °F

Passing clouds.


Feels Like: 87 °F
Forecast: 81 / 91 °F
Wind: 6 mph from Northeast

Location: Barranquilla / Ernestocortissoz

Current Time: Aug 21, 2014 at 4:21:43 AM

Latest Report: Aug 21, 2014 at 4:00 AM


Visibility: N/A

Pressure: 29.81 "Hg

Humidity: 89%

Dew point: 77 °F

Location of BarranquillaLocation

Historic Weather in Barranquilla — Graph

°F

Barranquilla temperature yesterday

Maximum temperature yesterday: 90 °F (at 10:00 AM)
Minimum temperature yesterday: 73 °F (at 6:00 AM)
Average temperature yesterday: 83 °F

Past Weeks' High & Low Weather Summary

 TemperatureHumidityPressure
High97 °F (Aug 6, 12:00 PM)100% (Aug 7, 4:00 AM)29.94 "Hg (Aug 7, 4:00 AM)
Low73 °F (Aug 20, 6:00 AM)53% (Aug 6, 12:00 PM)29.76 "Hg (Aug 17, 4:00 PM)
Average84 °F81%29.84 "Hg
* Reported Aug 6 3:00 AM — Aug 21 3:00 AM, Barranquilla, Weather by CustomWeather, © 2014

Note: Actual official high and low records may vary slightly from our data, if they occured in-between our weather recording intervals... More about our weather records

Advertising

Barranquilla weather history for previous 24 hours

 ConditionsComfort  
Time TempWeatherWind HumidityBarometerVisibility
3:00 AM
Aug 21
82 °FClear.6 mph84%29.81 "Hg10 mi
2:00 AM82 °FClear.5 mph84%29.83 "Hg10 mi
1:00 AM82 °FClear.8 mph89%29.84 "Hg10 mi
12:00 AM82 °FPassing clouds.13 mph84%29.86 "HgN/A
11:00 PM
Aug 20
82 °FPassing clouds.10 mph84%29.88 "HgN/A
10:00 PM82 °FPassing clouds.9 mph79%29.88 "HgN/A
9:00 PM84 °FPassing clouds.13 mph74%29.87 "HgN/A
8:00 PM84 °FPassing clouds.13 mph79%29.86 "HgN/A
7:00 PM84 °FPartly cloudy.8 mph79%29.85 "HgN/A
6:00 PM86 °FPartly sunny.12 mph75%29.82 "HgN/A
5:00 PM86 °FScattered clouds.9 mph75%29.81 "Hg3 mi
4:00 PM88 °FScattered clouds.7 mph75%29.81 "Hg3 mi
3:00 PM86 °FScattered clouds.8 mph75%29.82 "Hg2 mi
2:00 PM90 °FScattered clouds.12 mph71%29.83 "Hg1 mi
1:00 PM88 °FScattered clouds.10 mph70%29.86 "Hg2 mi
12:00 PM90 °FScattered clouds.14 mph71%29.87 "Hg2 mi
11:00 AM90 °FScattered clouds.6 mph67%29.88 "HgN/A
10:00 AM90 °FScattered clouds.3 mph63%29.90 "HgN/A
9:00 AM86 °FScattered clouds.3 mph70%29.91 "HgN/A
8:00 AM81 °FPassing clouds.6 mph79%29.90 "HgN/A
7:00 AM75 °FPassing clouds.5 mph94%29.88 "HgN/A
6:00 AM73 °FFog.5 mph100%29.87 "Hg4 mi
5:00 AM75 °FPassing clouds.No wind100%29.85 "HgN/A
4:00 AM75 °FPassing clouds.3 mph100%29.82 "HgN/A
Weather by CustomWeather, © 2014

See weather overviewHow to use our weather pages